Regional Weather Roundup
Issued by NWS

Home | Current Version | Previous Version | Text Only | Print | Product List | Glossary Off
Versions: 1 2 3 4 5 6 7 8 9 10 11 12 13 14 15 16 17 18 19 20 21 22 23 24 25 26 27 28 29 30 31 32 33 34 35 36 37 38 39 40 41 42 43 44 45 46 47 48 49 50

000
ASUS43 KBIS 071702
RWRND

NORTH DAKOTA REGIONAL WEATHER ROUNDUP
NATIONAL WEATHER SERVICE BISMARCK ND
1200 PM CDT TUE JUL 07 2015

NOTE: "FAIR" INDICATES FEW OR NO CLOUDS BELOW 12,000 FEET WITH NO
SIGNIFICANT WEATHER AND/OR OBSTRUCTIONS TO VISIBILITY.


NDZ001>003-009>011-017-071800-
NORTHWEST NORTH DAKOTA

CITY           SKY/WX    TMP DP  RH WIND       PRES   REMARKS
WILLISTON      MOSUNNY   72  56  57 S8        30.06F
MINOT          SUNNY     69  51  52 S10G18    30.09F
$$

NDZ018>021-031>035-040>046-071800-
SOUTHWEST NORTH DAKOTA

CITY           SKY/WX    TMP DP  RH WIND       PRES   REMARKS
BISMARCK       SUNNY     68  53  58 S13G20    30.14F
DICKINSON      CLOUDY    70  56  61 S13       30.08F
GARRISON         N/A     67  55  65 S12       30.11F
HETTINGER ARPT PTSUNNY   69  57  65 SE12      30.10F
$$

NDZ004>008-012>016-024-026-027-054-071800-
NORTHEAST NORTH DAKOTA

CITY           SKY/WX    TMP DP  RH WIND       PRES   REMARKS
GRAND FORKS    SUNNY     67  43  41 SW7       30.15F
GRND FRKS AFB  SUNNY     68  46  44 VRB3      30.16F
DEVILS LAKE    SUNNY     66  46  48 SW8       30.14S
$$

NDZ022-023-025-028>030-036>039-047>053-071800-
SOUTHEAST NORTH DAKOTA

CITY           SKY/WX    TMP DP  RH WIND       PRES   REMARKS
FARGO          SUNNY     68  41  37 CALM      30.18F
JAMESTOWN      SUNNY     67  44  43 S8        30.16F
$$




USA.gov is the U.S. government's official web portal to all federal, state and local government web resources and services.